Dinard-Pleurtuit-Saint-Malo Airport

Jump to: basic info | weather | frequencies | runways | comments

Related pages: nearby airports | nearby navaids | notams | map

Basic information (top)

Codes: DNR LFRD
Location: lon 48.587700, lat -2.079960, elev 219 ft / 67 m msl
Status: medium_airport
Scheduled airline service: yes
Links: Wikipedia Mobile

Weather (top)

Current conditions (rec'd 2014/07/25 17:00Z):

LFRD 251700Z AUTO 03010KT 350V050 9999 NSC 24/15 Q1014

Airport forecast (rec'd 2014/07/25 12:17Z):

TAF LFRD 251100Z 2512/2612 36010KT 9999 SCT030 
      BECMG 2600/2603 VRB02KT 
      TEMPO 2603/2606 0600 BCFG 
      BECMG 2610/2612 36010KT

Frequencies (top)

Verify before use: may be inaccurate or out of date.

ATIS: 124.575 MHz (DINARD ATIS)
TWR: 120.15 MHz (DINARD TWR)

Runways (top)

12/30: 4,708 x 148 ft (1,435 x 45 m) — paved — not lighted — threshold 30 displaced 476 ft (145 m)

17/35: 7,218 x 148 ft (2,200 x 45 m) — paved — lighted

Latest comments (top)

No comments yet for Dinard-Pleurtuit-Saint-Malo Airport

More... (top)

See also NOTAMs and nearby airports and navaids, or visit the Dinard-Pleurtuit-Saint-Malo Airport page at the main OurAirports website..